Regional Weather Roundup
Issued by NWS

Home | Current Version | Previous Version | Graphics & Text | Print | Product List | Glossary On
Versions: 1 2 3 4 5 6 7 8 9 10 11 12 13 14 15 16 17 18 19 20 21 22 23 24 25 26 27 28 29 30 31 32 33 34 35 36 37 38 39 40 41 42 43 44 45 46 47 48 49 50
000
ASUS43 KOAX 181110
RWRNE

WEATHER ROUNDUP FOR NEBRASKA
NATIONAL WEATHER SERVICE OMAHA NE
500 AM CST THU JAN 18 2018

NOTES: SATELLITE DATA IS BEING USED TO AUGMENT CLOUD COVER ABOVE
       12000 FEET.
       "FAIR" INDICATES FEW OR NO CLOUDS BELOW 12,000 FEET WITH NO
       SIGNIFICANT WEATHER AND/OR OBSTRUCTIONS TO VISIBILITY.


NEZ001>004-019>022-054>056-181200-
NEBRASKA PANHANDLE

CITY           SKY/WX    TMP DP  RH WIND       PRES   REMARKS
SCOTTSBLUFF    PTCLDY    18  14  84 N6        30.04F WCI  10
ALLIANCE       MOCLDY    15  14  95 W9        30.02F WCI   3
CHADRON        PTCLDY    22  18  85 SW5       30.01F WCI  16
GORDON         FAIR      26  19  77 W5        29.99F WCI  20
KIMBALL        MOCLDY    30  20  66 W13       30.08F WCI  20
SIDNEY         PTCLDY    19  15  84 W10       30.07F WCI   7
$$

NEZ057>060-069>072-079>082-181200-
SOUTHWEST NEBRASKA

CITY           SKY/WX    TMP DP  RH WIND       PRES   REMARKS
NORTH PLATTE   CLEAR     14  10  84 NW5       30.08F WCI   6
IMPERIAL       CLEAR     19  16  88 W7        30.10F WCI  10
LEXINGTON      CLEAR     15  11  84 W6        30.09F WCI   6
MCCOOK         CLEAR     16  13  88 W5        30.11F WCI   9
OGALLALA       CLEAR     20  17  88 SW5       30.08F WCI  13
$$

NEZ005>010-023>029-035>040-094-181200-
NORTH CENTRAL NEBRASKA

CITY           SKY/WX    TMP DP  RH WIND       PRES   REMARKS
VALENTINE      CLEAR     21  17  84 W5        29.99F WCI  15
AINSWORTH      CLEAR     27  21  80 SW10      29.99F WCI  17
BROKEN BOW     CLEAR     14  10  84 CALM      30.05F
O`NEILL        CLEAR     22  19  88 S7        30.01F WCI  13
ORD            CLEAR     13   9  84 S3        30.05F
THEDFORD       CLEAR     25  20  79 W7        30.03F WCI  17
$$

NEZ041-046>049-061>064-073>077-083>087-181200-
SOUTH CENTRAL NEBRASKA

CITY           SKY/WX    TMP DP  RH WIND       PRES   REMARKS
GRAND ISLAND   CLOUDY    12   9  87 SW7       30.11F WCI   1
AURORA         CLOUDY    14   9  79 SW8       30.11S WCI   3
HASTINGS       CLOUDY    16   9  74 SW5       30.11F WCI   9
HEBRON         CLOUDY    10   5  79 CALM      30.19F
HOLDREGE       CLOUDY    17  13  84 SW3       30.10F
KEARNEY        CLOUDY    15  11  83 SW7       30.10F WCI   5
YORK           CLOUDY    12  10  92 SW6       30.12F WCI   3
$$

NEZ011>018-030>034-042>045-181200-
NORTHEAST NEBRASKA

CITY           SKY/WX    TMP DP  RH WIND       PRES   REMARKS
NORFOLK        CLOUDY    15  12  88 S6        30.06F WCI   6
ALBION         CLOUDY    22  15  76 SW5       30.08F WCI  15
BLAIR          CLOUDY    20  12  69 S13       30.12F WCI   8
COLUMBUS       CLOUDY    18  13  80 SW5       30.12F WCI  11
FREMONT        CLOUDY    20  12  70 SW5       30.13F WCI  14
TEKAMAH        CLOUDY    15   9  76 SE7       30.13F WCI   5
WAYNE          CLOUDY    16  15  94 S8        30.06F WCI   6
$$

NEZ050>053-065>068-078-088>093-181200-
SOUTHEAST NEBRASKA

CITY           SKY/WX    TMP DP  RH WIND       PRES   REMARKS
LINCOLN        CLOUDY    14   8  77 S8        30.16F WCI   3
OMAHA EPPLEY   CLOUDY    14   8  77 SE12      30.16F WCI   0
BEATRICE       CLOUDY    15   8  73 S6        30.20F WCI   6
FALLS CITY     CLOUDY    11   5  77 CALM      30.24F
NEBRASKA CITY  CLOUDY    19  10  69 SW12      30.20F WCI   6
PLATTSMOUTH    CLOUDY    17   9  70 S6        30.17F WCI   9
$$

NEZ044-045-051>053-067-181200-
OMAHA AREA

CITY           SKY/WX    TMP DP  RH WIND       PRES   REMARKS
OMAHA EPPLEY   CLOUDY    14   8  77 SE12      30.16F WCI   0
BLAIR          CLOUDY    20  12  69 S13       30.12F WCI   8
FREMONT        CLOUDY    20  12  70 SW5       30.13F WCI  14
MILLARD        CLOUDY    19  10  70 E5        30.15F WCI  12
OFFUTT AFB     CLOUDY     6   2  82 CALM      30.16F
PLATTSMOUTH    CLOUDY    17   9  70 S6        30.17F WCI   9
WAHOO          FAIR      16   9  71 S6        30.14F WCI   8
$$




USA.gov is the U.S. government's official web portal to all federal, state and local government web resources and services.